Location: Houston
(29.7630°N, 95.3630°W)
Time: 13:11:05
(UTC-06:00)

Daily predictions for brighter satellites

Satellite Brightness Start Highest point End
(mag) Time Altitude Azimuth Time Altitude Azimuth Time Altitude Azimuth
Cosmos 1850 Rocket 4.3 18:33:13 10° S 18:38:17 50° ESE 18:43:24 10° NNE
Cosmos 1536 3.7 18:36:46 10° SSE 18:40:12 28° E 18:43:38 10° NNE
Cosmos 2219 3.5 18:35:58 10° S 18:41:27 49° ESE 18:46:58 10° NNE
Cosmos 2360 Rocket 2.6 18:36:30 10° N 18:41:47 40° ENE 18:47:04 10° SE
Cosmos 2227 Rocket 3.8 18:43:00 10° ESE 18:45:15 12° E 18:47:30 10° ENE
Skynet4D Del rocket 4.4 18:40:31 10° SW 18:45:37 38° SSE 18:50:32 10° E
Okean 1 3.5 18:45:42 10° N 18:49:46 81° W 18:53:49 10° S
Cosmos 2181 Rocket 4.1 18:50:42 10° N 18:56:54 59° E 19:03:10 10° SSE
Okean 1 Rocket 3.1 18:53:29 10° S 18:57:55 67° E 19:02:23 10° NNE
Cosmos 1602 4.0 18:55:22 10° SSW 18:59:12 71° W 19:03:06 10° N
OTV 4 0.3 18:57:00 10° WSW 18:59:58 81° SSE 19:02:21 15° ENE
Cosmos 1709 Rocket 4.3 18:53:47 10° S 19:00:01 73° W 19:06:11 10° N
Cosmos 2074 Rocket 4.3 18:55:15 10° SSE 19:01:05 43° E 19:06:57 10° NNE
Cosmos 2184 Rocket 4.2 19:00:22 10° SSE 19:06:22 47° E 19:12:19 10° NNE
Meteor 1-11 Rocket 3.9 19:02:04 10° S 19:07:49 82° W 19:13:43 10° N
FUSE 4.5 19:03:38 10° WSW 19:08:49 50° S 19:12:55 16° ESE
Cosmos 1340 2.9 19:06:25 10° NNW 19:10:11 72° W 19:13:56 10° S
ALOS 2.6 19:06:03 10° SE 19:10:24 41° ENE 19:14:47 10° N
Cosmos 1025 Rocket 3.7 19:11:02 10° NNE 19:14:58 32° E 19:18:53 10° SE
OAO 3 Copernicus 4.3 19:10:16 10° WNW 19:15:22 87° NNE 19:19:05 19° ESE
SL-08 ROCKET BODY 4.4 19:12:08 10° S 19:18:15 72° E 19:24:25 10° N
SL-16 R/B 4.4 19:16:26 10° NW 19:21:14 29° WSW 19:26:00 10° SSW
FREGAT/IRIS 2.9 19:19:29 10° S 19:22:33 72° W 19:25:37 10° NNW
Cosmos 2333 Rocket 3.7 19:20:12 10° NNE 19:23:54 17° ENE 19:23:54 17° ENE
Cosmos 1544 Rocket 4.3 19:22:35 10° SSE 19:26:21 29° E 19:30:06 10° NNE
FENGYUN 3A 3.6 19:22:18 10° SSE 19:27:38 64° ENE 19:33:00 10° N
Tiangong 2 2.6 19:26:13 10° WNW 19:28:59 31° SW 19:31:00 15° SSE
Genesis I 3.3 19:30:04 10° NNW 19:33:55 54° ENE 19:35:12 36° ESE
GPS 2-04 Rocket1 3.8 19:30:38 10° WNW 19:34:39 39° N 19:36:30 26° NE
Cosmos 2154 Rocket 4.3 19:29:49 10° SSE 19:35:41 41° E 19:41:33 10° NNE
Okean 1-7 Rocket 3.5 19:33:26 10° N 19:37:57 89° E 19:42:23 10° S
GEOS 3 Rocket 4.0 19:34:50 10° NNE 19:40:03 66° NW 19:45:17 10° SW
OAO 3 Rocket 3.3 19:37:08 10° SW 19:42:01 62° SSE 19:43:34 41° E
Meteor 1-5 Rocket 4.4 19:36:25 10° S 19:42:23 81° W 19:48:20 10° N
FengYun 1-2 T 4.1 19:36:58 10° SSE 19:42:27 87° ENE 19:47:57 10° NNW
Cosmos 2285 Rocket 4.2 19:37:12 10° N 19:43:23 48° ENE 19:47:09 23° SE
Cosmos 2082 3.9 19:40:55 10° S 19:46:18 45° ESE 19:48:27 31° NE
SJ-6B 4.2 19:42:36 10° S 19:46:23 40° W 19:50:07 10° NNW
Hubble Space Telescope 0.8 19:43:33 10° WSW 19:47:38 64° S 19:48:14 55° SE
Cosmos 1570 Rocket 4.2 19:49:32 10° NNW 19:54:45 73° WSW 19:59:58 10° S
CZ-2D R/B 4.0 19:59:21 41° N 19:59:21 41° N 20:01:55 10° N
Helios 1A 4.3 20:00:23 27° N 20:00:23 27° N 20:02:26 10° N
Meteor 1-12 Rocket 4.3 19:53:25 10° S 19:59:15 56° E 20:05:03 10° NNE
H-2A R/B 2.8 19:57:59 38° S 19:59:17 72° W 20:03:01 10° NNW
Cosmos 1455 Rocket 4.4 19:59:30 10° S 20:01:28 26° S 20:01:28 26° S
Spot 2 Rocket 3.7 19:59:03 10° S 20:04:04 71° WSW 20:09:08 10° NNW
Okean 2 3.4 20:01:44 10° N 20:05:40 79° NNW 20:05:40 79° NNW
Cosmos 962 Rocket 4.4 20:01:35 10° S 20:07:38 57° E 20:13:38 10° NNE
Cosmos 2297 Rocket 2.1 20:02:48 10° S 20:08:19 62° ESE 20:08:19 62° ESE
Helios 1B rocket 2.7 20:04:36 10° N 20:08:44 67° WNW 20:12:49 10° SSW
Resurs 01 Rocket 2.4 20:06:07 10° S 20:10:22 49° W 20:14:39 10° NNW
Cosmos 2237 Rocket 3.6 20:07:30 10° N 20:10:06 23° NNE 20:10:06 23° NNE
Cosmos 2333 4.2 20:07:32 10° NNW 20:13:17 81° WSW 20:15:47 36° S
DELTA 2 R/B (1) 3.8 20:08:10 10° WNW 20:13:42 62° SSW 20:14:43 52° SSE
COSMOS 2428 2.9 20:08:27 10° NNW 20:14:06 68° WSW 20:17:41 23° S
USA 229 DEB 3.7 20:08:35 10° NNW 20:15:46 71° ENE 20:17:25 54° ESE
USA 229 3.7 20:08:41 10° NNW 20:15:52 70° ENE 20:17:28 55° ESE
Atlas Centaur 2 2.8 20:14:07 10° SW 20:21:05 49° SSE 20:21:05 49° SSE
BREEZE-M DEB (TANK) 3.5 20:19:22 10° NW 20:22:41 59° NNE 20:22:41 59° NNE
Delta R/B 4.2 20:15:23 10° W 20:23:55 58° SW 20:23:55 58° SW
Cosmos 2219 Rocket 2.3 20:20:41 10° NNW 20:25:26 64° N 20:25:26 64° N
Cosmos 2227 Rocket 2.6 20:23:04 10° SSW 20:28:39 62° WNW 20:31:29 29° N
CZ-3 Stage 3 3.8 19:45:43 10° SW 20:30:44 61° SSE 20:33:06 51° ESE
Skynet4D Del rocket 4.2 20:32:31 10° WSW 20:36:27 47° SW 20:36:27 47° SW
Cosmos 2333 Rocket 3.7 21:02:52 10° NNW 21:05:58 31° NW 21:05:58 31° NW
ATLAS 3B CENTAUR R/B 4.3 21:22:42 10° WSW 21:44:13 64° SW 21:44:13 64° SW
